Sparta, TN

10:09 PM CDT on June 26, 2017 (GMT -0500)
Upper Cumberland Regional

Weather History for KSRB - December, 2012

Change the Weather History Date:

Thursday, December 27, 2012

  Actual Average (KCSV) Record (KCSV)
Temperature  
Mean Temperature 30 °F -  
Max Temperature 32 °F 44 °F 73 °F (2015)
Min Temperature 28 °F 29 °F 10 °F (1977)
Degree Days  
Heating Degree Days 35    
Moisture  
Dew Point 29 °F    
Average Humidity 93    
Maximum Humidity 100    
Minimum Humidity 87    
Precipitation  
Precipitation 0.00 in - - ()
Sea Level Pressure  
Sea Level Pressure 30.11 in    
Wind  
Wind Speed 5 mph (NNE)    
Max Wind Speed 9 mph    
Max Gust Speed -    
Visibility 10 miles    
Events      
Averages and records for this station are not official NWS values.
T = Trace of Precipitation, MM = Missing Value Source: NWS Daily Summary

Daily Weather History Graph

Daily Weather History Graph

Search for Another Location

Airport or City:

Trip Planner

Search our weather history database for the weather conditions in past years. The results will help you decide how hot, cold, wet, or windy it might be!

Date:

Astronomy

Dec. 27, 2012 Rise Set
Actual Time 6:51 AM CST 4:35 PM CST
Civil Twilight 6:23 AM CST 5:03 PM CST
Nautical Twilight 5:51 AM CST 5:36 PM CST
Astronomical Twilight 5:19 AM CST 6:07 PM CST
Moon 4:16 PM CST 6:03 AM CST
Length of Visible Light 10h 40m
Length of Day
9h 43m
Full, 100% of the Moon is Illuminated
Dec 27
Full
Dec 28
Full
Jan 4
Last Quarter
Jan 11
New
Jan 18
First Quarter

Hourly Weather History & Observations

Time (CST) Temp. Windchill Dew Point Humidity Pressure Visibility Wind Dir Wind Speed Gust Speed Precip Events Conditions
12:15 AM 28.4 °F 21.2 °F 28.4 °F 100% 30.02 in 10.0 mi NW 6.9 mph - N/A   Overcast
12:35 AM 28.4 °F 23.3 °F 28.4 °F 100% 30.04 in 10.0 mi NW 4.6 mph - N/A   Overcast
12:55 AM 30.2 °F 25.4 °F 28.4 °F 93% 30.04 in 10.0 mi NW 4.6 mph - N/A   Overcast
1:15 AM 30.2 °F 22.6 °F 28.4 °F 93% 30.05 in 10.0 mi NW 8.1 mph - N/A   Overcast
1:35 AM 30.2 °F 22.6 °F 28.4 °F 93% 30.06 in 10.0 mi NW 8.1 mph - N/A   Overcast
1:55 AM 30.2 °F 25.4 °F 28.4 °F 93% 30.06 in 10.0 mi NW 4.6 mph - N/A   Overcast
2:15 AM 30.2 °F 24.3 °F 28.4 °F 93% 30.07 in 10.0 mi Variable 5.8 mph - N/A   Overcast
2:35 AM 30.2 °F 24.3 °F 28.4 °F 93% 30.07 in 10.0 mi North 5.8 mph - N/A   Overcast
2:55 AM 30.2 °F 21.9 °F 28.4 °F 93% 30.08 in 10.0 mi NW 9.2 mph - N/A   Overcast
3:15 AM 28.4 °F 24.6 °F 28.4 °F 100% 30.08 in 10.0 mi NNW 3.5 mph - N/A   Overcast
3:55 AM 28.4 °F 24.6 °F 28.4 °F 100% 30.08 in 10.0 mi NNW 3.5 mph - N/A   Overcast
4:15 AM 30.2 °F 25.4 °F 28.4 °F 93% 30.09 in 10.0 mi NW 4.6 mph - N/A   Overcast
4:35 AM 28.4 °F 22.2 °F 28.4 °F 100% 30.10 in 10.0 mi NNW 5.8 mph - N/A   Overcast
4:55 AM 28.4 °F 24.6 °F 28.4 °F 100% 30.09 in 10.0 mi NNW 3.5 mph - N/A   Mostly Cloudy
5:15 AM 30.2 °F 24.3 °F 28.4 °F 93% 30.09 in 10.0 mi NNW 5.8 mph - N/A   Mostly Cloudy
5:35 AM 30.2 °F 23.4 °F 28.4 °F 93% 30.10 in 10.0 mi NNW 6.9 mph - N/A   Mostly Cloudy
5:55 AM 30.2 °F 26.7 °F 28.4 °F 93% 30.11 in 10.0 mi NNW 3.5 mph - N/A   Overcast
6:15 AM 30.2 °F 25.4 °F 28.4 °F 93% 30.11 in 10.0 mi NNW 4.6 mph - N/A   Overcast
6:35 AM 28.4 °F 23.3 °F 28.4 °F 100% 30.11 in 10.0 mi North 4.6 mph - N/A   Overcast
6:55 AM 28.4 °F 22.2 °F 28.4 °F 100% 30.11 in 10.0 mi NNW 5.8 mph - N/A   Overcast
7:15 AM 28.4 °F 21.2 °F 28.4 °F 100% 30.11 in 10.0 mi NNW 6.9 mph - N/A   Mostly Cloudy
7:35 AM 30.2 °F - 28.4 °F 93% 30.11 in 10.0 mi Calm Calm - N/A   Overcast
7:55 AM 30.2 °F 26.7 °F 28.4 °F 93% 30.11 in 10.0 mi North 3.5 mph - N/A   Mostly Cloudy
8:15 AM 30.2 °F 26.7 °F 28.4 °F 93% 30.11 in 10.0 mi NNE 3.5 mph - N/A   Mostly Cloudy
8:35 AM 30.2 °F 23.4 °F 28.4 °F 93% 30.13 in 10.0 mi North 6.9 mph - N/A   Overcast
8:55 AM 30.2 °F 24.3 °F 28.4 °F 93% 30.14 in 10.0 mi North 5.8 mph - N/A   Mostly Cloudy
9:15 AM 30.2 °F 24.3 °F 28.4 °F 93% 30.15 in 10.0 mi North 5.8 mph - N/A   Mostly Cloudy
9:35 AM 30.2 °F 23.4 °F 28.4 °F 93% 30.15 in 10.0 mi Variable 6.9 mph - N/A   Mostly Cloudy
9:55 AM 30.2 °F 24.3 °F 28.4 °F 93% 30.15 in 10.0 mi North 5.8 mph - N/A   Mostly Cloudy
10:15 AM 30.2 °F 26.7 °F 28.4 °F 93% 30.15 in 10.0 mi North 3.5 mph - N/A   Mostly Cloudy
10:35 AM 30.2 °F 25.4 °F 28.4 °F 93% 30.15 in 10.0 mi Variable 4.6 mph - N/A   Overcast
10:55 AM 30.2 °F 25.4 °F 28.4 °F 93% 30.14 in 10.0 mi NNE 4.6 mph - N/A   Overcast
11:15 AM 30.2 °F 26.7 °F 28.4 °F 93% 30.14 in 10.0 mi North 3.5 mph - N/A   Overcast
11:35 AM 30.2 °F 24.3 °F 28.4 °F 93% 30.13 in 10.0 mi North 5.8 mph - N/A   Overcast
11:55 AM 30.2 °F 25.4 °F 28.4 °F 93% 30.12 in 10.0 mi North 4.6 mph - N/A   Overcast
12:15 PM 32.0 °F 25.6 °F 28.4 °F 87% 30.11 in 10.0 mi North 6.9 mph - N/A   Overcast
12:35 PM 32.0 °F 27.5 °F 28.4 °F 87% 30.11 in 10.0 mi NNE 4.6 mph - N/A   Overcast
12:55 PM 32.0 °F 28.7 °F 28.4 °F 87% 30.10 in 10.0 mi NNE 3.5 mph - N/A   Overcast
1:15 PM 32.0 °F 27.5 °F 28.4 °F 87% 30.10 in 10.0 mi North 4.6 mph - N/A   Overcast
1:35 PM 32.0 °F 26.4 °F 28.4 °F 87% 30.10 in 10.0 mi NE 5.8 mph - N/A   Overcast
1:55 PM 32.0 °F 27.5 °F 28.4 °F 87% 30.10 in 10.0 mi ENE 4.6 mph - N/A   Overcast
2:35 PM 32.0 °F - 28.4 °F 87% 30.11 in 10.0 mi Calm Calm - N/A   Overcast
2:55 PM 32.0 °F - 28.4 °F 87% 30.12 in 10.0 mi Calm Calm - N/A   Overcast
3:15 PM 32.0 °F 28.7 °F 28.4 °F 87% 30.12 in 10.0 mi North 3.5 mph - N/A   Overcast
3:35 PM 32.0 °F - 28.4 °F 87% 30.12 in 10.0 mi Calm Calm - N/A   Overcast
3:55 PM 32.0 °F - 28.4 °F 87% 30.12 in 10.0 mi Calm Calm - N/A   Overcast
4:15 PM 32.0 °F 28.7 °F 28.4 °F 87% 30.11 in 10.0 mi East 3.5 mph - N/A   Overcast
4:35 PM 32.0 °F 27.5 °F 28.4 °F 87% 30.11 in 10.0 mi East 4.6 mph - N/A   Overcast
4:55 PM 32.0 °F - 28.4 °F 87% 30.12 in 10.0 mi Calm Calm - N/A   Overcast
5:15 PM 32.0 °F - 28.4 °F 87% 30.12 in 10.0 mi Calm Calm - N/A   Overcast
5:35 PM 32.0 °F 27.5 °F 28.4 °F 87% 30.11 in 10.0 mi East 4.6 mph - N/A   Overcast
5:55 PM 30.2 °F 26.7 °F 28.4 °F 93% 30.11 in 10.0 mi ESE 3.5 mph - N/A   Overcast
6:15 PM 30.2 °F 26.7 °F 28.4 °F 93% 30.11 in 10.0 mi ESE 3.5 mph - N/A   Overcast
6:35 PM 30.2 °F 25.4 °F 28.4 °F 93% 30.11 in 10.0 mi East 4.6 mph - N/A   Overcast
6:55 PM 30.2 °F 25.4 °F 28.4 °F 93% 30.11 in 10.0 mi East 4.6 mph - N/A   Overcast
7:15 PM 30.2 °F - 28.4 °F 93% 30.11 in 10.0 mi Calm Calm - N/A   Overcast
7:35 PM 30.2 °F 26.7 °F 30.2 °F 100% 30.12 in 10.0 mi East 3.5 mph - N/A   Overcast
7:55 PM 30.2 °F - 30.2 °F 100% 30.12 in 10.0 mi Calm Calm - N/A   Overcast
8:15 PM 30.2 °F 26.7 °F 28.4 °F 93% 30.11 in 10.0 mi East 3.5 mph - N/A   Overcast
8:35 PM 30.2 °F 25.4 °F 30.2 °F 100% 30.10 in 10.0 mi ENE 4.6 mph - N/A   Overcast
8:55 PM 30.2 °F 26.7 °F 28.4 °F 93% 30.11 in 10.0 mi ENE 3.5 mph - N/A   Overcast
9:15 PM 30.2 °F 25.4 °F 28.4 °F 93% 30.11 in 10.0 mi East 4.6 mph - N/A   Overcast
9:35 PM 30.2 °F 26.7 °F 30.2 °F 100% 30.12 in 10.0 mi ESE 3.5 mph - N/A   Overcast
9:55 PM 30.2 °F 26.7 °F 28.4 °F 93% 30.11 in 10.0 mi ESE 3.5 mph - N/A   Overcast
10:15 PM 30.2 °F 26.7 °F 28.4 °F 93% 30.10 in 10.0 mi SE 3.5 mph - N/A   Overcast
10:35 PM 30.2 °F 24.3 °F 28.4 °F 93% 30.10 in 10.0 mi East 5.8 mph - N/A   Overcast
10:55 PM 30.2 °F 26.7 °F 28.4 °F 93% 30.11 in 10.0 mi ESE 3.5 mph - N/A   Overcast
11:35 PM 30.2 °F - 28.4 °F 93% 30.10 in 10.0 mi Calm Calm - N/A   Overcast
11:55 PM 30.2 °F 26.7 °F 28.4 °F 93% 30.09 in 10.0 mi SSE 3.5 mph - N/A   Overcast